tititudorancea.com
Station Historical Data
Daily Summary for March 1, 2019 Units:  Metric    English   Both
« Previous Day
Next Day »
Daily Weekly Monthly Yearly Custom
  High: Low: Average:
Temperature: -17.8 °C 21.3 °C 26.8 °C
Dew Point: -17.8 °C 6.3 °C 8.2 °C
Humidity: Humidity % 17 % 32 %
Wind Speed: 0 km/h 0 km/h 9 km/h
Wind Gust: 0 km/h - -
Wind:- - South
Pressure: 0 hPa 1014.4 hPa -
Precipitation: 0 mm    
Historical Graphs
 
 
Ararat weather Find more about Weather in Ararat, AU


 



 


Tabular Data for March 1, 2019
Time Temperature Dew Point Pressure Wind Wind Speed Wind Gust Humidity Rainfall Rate (Hourly)
-17.8 °C -17.8 °C 0 hPa Calm     Humidity % 0 mm
00:04 21.9 °C 10.4 °C 1015.8 hPa Calm     48 % 0 mm
00:09 21.7 °C 10.2 °C 1015.8 hPa Calm     48 % 0 mm
00:14 21.7 °C 10.6 °C 1015.8 hPa South 1.9 km/h 0.3 km/h 49 % 0 mm
00:19 21.6 °C 10.7 °C 1015.8 hPa Calm     50 % 0 mm
00:24 21.3 °C 10.2 °C 1015.8 hPa Calm     49 % 0 mm
00:29 21.3 °C 10.5 °C 1015.8 hPa Calm     50 % 0 mm
00:34 21.3 °C 10.5 °C 1015.8 hPa Calm     50 % 0 mm
00:39 21.4 °C 10.2 °C 1015.8 hPa South 5.6 km/h 0.3 km/h 49 % 0 mm
00:44 21.4 °C 10.3 °C 1015.8 hPa South 4.8 km/h 2.7 km/h 49 % 0 mm
00:49 21.5 °C 9.7 °C 1015.8 hPa South 1.9 km/h 0.6 km/h 47 % 0 mm
00:54 21.7 °C 9.6 °C 1015.8 hPa South 3.7 km/h 3.2 km/h 46 % 0 mm
00:59 21.9 °C 9.7 °C 1015.8 hPa South 5.6 km/h 2.1 km/h 46 % 0 mm
01:04 22.2 °C 9.4 °C 1015.8 hPa Calm   0.8 km/h 44 % 0 mm
01:09 22.4 °C 9.2 °C 1015.8 hPa South 3.7 km/h 1.8 km/h 43 % 0 mm
01:14 22.6 °C 9.3 °C 1015.8 hPa South 3.7 km/h 3.1 km/h 43 % 0 mm
01:19 22.7 °C 9.1 °C 1015.8 hPa South 5.6 km/h 3.1 km/h 42 % 0 mm
01:24 22.5 °C 9.3 °C 1015.8 hPa South 5.6 km/h 3.2 km/h 43 % 0 mm
01:29 22.4 °C 8.9 °C 1015.8 hPa South 5.6 km/h 3.7 km/h 42 % 0 mm
01:34 22.6 °C 9.1 °C 1015.8 hPa South 5.6 km/h 3.1 km/h 42 % 0 mm
01:39 22.7 °C 8.7 °C 1015.8 hPa South 5.6 km/h 3.1 km/h 41 % 0 mm
01:44 22.8 °C 8.4 °C 1015.8 hPa South 5.6 km/h 4.5 km/h 40 % 0 mm
01:49 22.9 °C 8.2 °C 1015.8 hPa South 7.4 km/h 6.4 km/h 39 % 0 mm
01:54 23.3 °C 8.2 °C 1015.8 hPa South 7.4 km/h 5.8 km/h 38 % 0 mm
01:59 23.9 °C 7.9 °C 1015.8 hPa South 9.3 km/h 5.8 km/h 36 % 0 mm
02:04 24.4 °C 7.9 °C 1015.8 hPa South 5.6 km/h 4.8 km/h 35 % 0 mm
02:09 24.7 °C 7.8 °C 1015.8 hPa South 9.3 km/h 6.6 km/h 34 % 0 mm
02:14 25.4 °C 7.5 °C 1015.8 hPa South 9.7 km/h 7.4 km/h 32 % 0 mm
02:19 26 °C 7.6 °C 1015.8 hPa South 9.3 km/h 6.3 km/h 31 % 0 mm
02:24 26.3 °C 7.8 °C 1015.8 hPa South 11.3 km/h 5.1 km/h 31 % 0 mm
02:29 26.3 °C 7.4 °C 1015.8 hPa South 9.3 km/h 6.9 km/h 30 % 0 mm
02:34 26.3 °C 7.3 °C 1015.8 hPa South 9.3 km/h 6.4 km/h 30 % 0 mm
02:39 26.2 °C 7.3 °C 1015.8 hPa South 9.3 km/h 5.5 km/h 30 % 0 mm
02:44 26.3 °C 7.3 °C 1015.8 hPa South 9.3 km/h 6.6 km/h 30 % 0 mm
02:49 26.3 °C 7.8 °C 1015.8 hPa South 11.1 km/h 5.3 km/h 31 % 0 mm
02:54 26.2 °C 7.7 °C 1015.8 hPa South 9.7 km/h 5 km/h 31 % 0 mm
02:59 26.2 °C 7.7 °C 1015.8 hPa South 7.4 km/h 6 km/h 31 % 0 mm
03:04 26.1 °C 7.7 °C 1015.8 hPa South 9.3 km/h 7.6 km/h 31 % 0 mm
03:09 26.1 °C 7.6 °C 1015.5 hPa SSW 14.8 km/h 8.2 km/h 31 % 0 mm
03:14 26.1 °C 7.6 °C 1015.5 hPa SSW 9.3 km/h 8.2 km/h 31 % 0 mm
03:19 26.1 °C 7.6 °C 1015.5 hPa SSW 11.1 km/h 7.9 km/h 31 % 0 mm
03:24 25.9 °C 7.5 °C 1015.5 hPa SSW 9.3 km/h 8 km/h 31 % 0 mm
03:29 25.8 °C 7.4 °C 1015.5 hPa SSW 9.3 km/h 7.7 km/h 31 % 0 mm
03:34 25.7 °C 7.7 °C 1015.5 hPa SSW 8 km/h 6.8 km/h 32 % 0 mm
03:39 25.6 °C 7.7 °C 1015.5 hPa SSW 13 km/h 6 km/h 32 % 0 mm
03:44 25.5 °C 7.6 °C 1015.5 hPa SW 9.7 km/h 7.7 km/h 32 % 0 mm
03:49 25.4 °C 7.5 °C 1015.5 hPa SW 11.3 km/h 8.4 km/h 32 % 0 mm
03:54 25.3 °C 7.4 °C 1015.5 hPa WSW 11.1 km/h 6.1 km/h 32 % 0 mm
03:59 25.3 °C 7.4 °C 1015.5 hPa WSW 11.3 km/h 7.9 km/h 32 % 0 mm
04:04 25.2 °C 7.8 °C 1015.5 hPa WSW 11.1 km/h 6.4 km/h 33 % 0 mm
04:09 25.1 °C 7.7 °C 1015.5 hPa WSW 9.3 km/h 7.1 km/h 33 % 0 mm
04:14 25 °C 7.6 °C 1015.8 hPa WSW 7.4 km/h 4.7 km/h 33 % 0 mm
04:19 24.9 °C 7.5 °C 1015.8 hPa WSW 7.4 km/h 6.1 km/h 33 % 0 mm
04:24 24.8 °C 7.8 °C 1015.8 hPa WSW 5.6 km/h 3.4 km/h 34 % 0 mm
04:29 24.7 °C 7.7 °C 1015.8 hPa WSW 8 km/h 7.2 km/h 34 % 0 mm
04:34 24.6 °C 7.7 °C 1015.8 hPa WSW 9.7 km/h 7.2 km/h 34 % 0 mm
04:39 24.4 °C 7.6 °C 1015.8 hPa WSW 8 km/h 6.9 km/h 34 % 0 mm
04:44 24.3 °C 7.8 °C 1015.8 hPa WSW 7.4 km/h 5.6 km/h 35 % 0 mm
04:49 24.1 °C 7.7 °C 1015.8 hPa WSW 5.6 km/h 5.1 km/h 35 % 0 mm
04:54 24 °C 7.6 °C 1015.8 hPa WSW 5.6 km/h 3.9 km/h 35 % 0 mm
04:59 23.8 °C 7.8 °C 1015.8 hPa WSW 5.6 km/h 3.7 km/h 36 % 0 mm
05:04 23.7 °C 7.8 °C 1015.8 hPa WSW 5.6 km/h 4.5 km/h 36 % 0 mm
05:09 23.6 °C 7.7 °C 1015.8 hPa WSW 5.6 km/h 3.7 km/h 36 % 0 mm
05:14 23.5 °C 7.6 °C 1015.8 hPa WSW 5.6 km/h 3.2 km/h 36 % 0 mm
05:19 23.4 °C 7.9 °C 1015.8 hPa WSW 5.6 km/h 1.9 km/h 37 % 0 mm
05:24 23.3 °C 7.8 °C 1015.8 hPa WSW 5.6 km/h 3.2 km/h 37 % 0 mm
05:29 23.3 °C 7.8 °C 1016.1 hPa WSW 5.6 km/h 3.4 km/h 37 % 0 mm
05:34 23.2 °C 8.1 °C 1016.1 hPa WSW 5.6 km/h 4.3 km/h 38 % 0 mm
05:39 23.1 °C 8 °C 1016.1 hPa WSW 6.4 km/h 5 km/h 38 % 0 mm
05:44 23.1 °C 7.9 °C 1016.1 hPa WSW 5.6 km/h 4.8 km/h 38 % 0 mm
05:49 22.9 °C 8.2 °C 1016.1 hPa WSW 5.6 km/h 3.4 km/h 39 % 0 mm
05:54 22.8 °C 8.1 °C 1016.1 hPa WSW 5.6 km/h 3.1 km/h 39 % 0 mm
05:59 22.6 °C 7.9 °C 1016.1 hPa WSW 5.6 km/h 3.4 km/h 39 % 0 mm
06:04 22.5 °C 8.2 °C 1016.5 hPa WSW 5.6 km/h 4.2 km/h 40 % 0 mm
06:09 22.4 °C 8.1 °C 1016.5 hPa WSW 6.4 km/h 4 km/h 40 % 0 mm
06:14 22.3 °C 8.1 °C 1016.5 hPa WSW 5.6 km/h 4 km/h 40 % 0 mm
06:19 22.4 °C 8.1 °C 1016.5 hPa WSW 5.6 km/h 3.7 km/h 40 % 0 mm
06:24 22.4 °C 8.1 °C 1016.5 hPa WSW 3.7 km/h 2.7 km/h 40 % 0 mm
06:29 22.4 °C 8.1 °C 1016.5 hPa WSW 5.6 km/h 2.3 km/h 40 % 0 mm
06:34 22.4 °C 8.5 °C 1016.5 hPa WSW 3.7 km/h 2.6 km/h 41 % 0 mm
06:39 22.3 °C 8.4 °C 1016.5 hPa WSW 4.8 km/h 3.7 km/h 41 % 0 mm
06:44 22.3 °C 8.4 °C 1016.5 hPa WSW 5.6 km/h 4.3 km/h 41 % 0 mm
06:49 22.4 °C 8.5 °C 1016.5 hPa WSW 6.4 km/h 4.3 km/h 41 % 0 mm
06:54 22.5 °C 8.2 °C 1016.8 hPa WSW 5.6 km/h 4 km/h 40 % 0 mm
06:59 22.7 °C 8.4 °C 1016.8 hPa WSW 5.6 km/h 3.9 km/h 40 % 0 mm
07:04 22.8 °C 8.4 °C 1016.8 hPa WSW 7.4 km/h 4.7 km/h 40 % 0 mm
07:09 22.9 °C 8.2 °C 1016.8 hPa WSW 5.6 km/h 3.7 km/h 39 % 0 mm
07:14 22.9 °C 8.2 °C 1017.2 hPa WSW 5.6 km/h 4 km/h 39 % 0 mm
07:19 22.9 °C 8.2 °C 1017.2 hPa WSW 5.6 km/h 3.4 km/h 39 % 0 mm
07:24 22.9 °C 8.2 °C 1017.2 hPa WSW 5.6 km/h 3.5 km/h 39 % 0 mm
07:29 22.9 °C 8.2 °C 1017.2 hPa WSW 9.3 km/h 6.8 km/h 39 % 0 mm
07:34 23.2 °C 8.4 °C 1017.5 hPa WSW 8 km/h 4.7 km/h 39 % 0 mm
07:39 23.3 °C 8.2 °C 1017.5 hPa WSW 5.6 km/h 3.1 km/h 38 % 0 mm
07:44 23.4 °C 8.3 °C 1017.5 hPa WSW 5.6 km/h 3.4 km/h 38 % 0 mm
07:49 23.6 °C 8.4 °C 1017.5 hPa WSW 7.4 km/h 5.6 km/h 38 % 0 mm
07:54 23.8 °C 8.7 °C 1017.5 hPa WSW 7.4 km/h 3.7 km/h 38 % 0 mm
07:59 24.1 °C 8.4 °C 1017.5 hPa WSW 9.3 km/h 6.1 km/h 37 % 0 mm
08:04 24.3 °C 8.7 °C 1017.5 hPa WSW 7.4 km/h 5.8 km/h 37 % 0 mm
08:09 24.5 °C 8.8 °C 1017.5 hPa West 11.1 km/h 6.3 km/h 37 % 0 mm
08:14 24.8 °C 9.1 °C 1017.8 hPa West 9.7 km/h 6.8 km/h 37 % 0 mm
08:19 25.1 °C 9.3 °C 1017.8 hPa West 8 km/h 6.4 km/h 37 % 0 mm
08:24 25.3 °C 9.2 °C 1017.8 hPa WNW 9.3 km/h 6.6 km/h 36 % 0 mm
08:29 25.7 °C 9.1 °C 1017.8 hPa NW 11.3 km/h 9.7 km/h 35 % 0 mm
08:34 25.9 °C 8.9 °C 1017.5 hPa NW 13 km/h 7.1 km/h 34 % 0 mm
08:39 26.2 °C 9.1 °C 1017.5 hPa NW 7.4 km/h 5.8 km/h 34 % 0 mm
08:44 26.4 °C 8.9 °C 1017.8 hPa NNW 18.5 km/h 18.5 km/h 33 % 0 mm
08:49 26.6 °C 9 °C 1017.5 hPa NNW 11.1 km/h 7.1 km/h 33 % 0 mm
08:54 26.7 °C 9.1 °C 1017.8 hPa NNW 16.1 km/h 9.7 km/h 33 % 0 mm
08:59 26.8 °C 8.7 °C 1017.5 hPa NNW 13 km/h 8.7 km/h 32 % 0 mm
09:04 26.9 °C 8.4 °C 1017.5 hPa North 16.7 km/h 13.8 km/h 31 % 0 mm
09:09 27.1 °C 8.9 °C 1017.5 hPa NNW 25.9 km/h 13 km/h 32 % 0 mm
09:14 27.2 °C 8.6 °C 1017.5 hPa NNW 16.7 km/h 11.9 km/h 31 % 0 mm
09:19 27.4 °C 8.8 °C 1017.5 hPa NNW 24.1 km/h 12.2 km/h 31 % 0 mm
09:24 27.5 °C 8.8 °C 1017.8 hPa NNW 27.8 km/h 17.5 km/h 31 % 0 mm
09:29 27.6 °C 8.4 °C 1017.8 hPa NW 24.1 km/h 17.5 km/h 30 % 0 mm
09:34 27.7 °C 8.5 °C 1017.8 hPa North 18.5 km/h 12.1 km/h 30 % 0 mm
09:39 27.8 °C 8.7 °C 1017.8 hPa North 13 km/h 9.2 km/h 30 % 0 mm
09:44 27.9 °C 8.7 °C 1017.8 hPa NNW 18.5 km/h 12.6 km/h 30 % 0 mm
09:49 28 °C 8.8 °C 1017.8 hPa North 18.5 km/h 12.9 km/h 30 % 0 mm
09:54 28.1 °C 8.9 °C 1017.8 hPa NNE 27.4 km/h 19.8 km/h 30 % 0 mm
09:59 28.2 °C 9 °C 1017.8 hPa NNE 14.8 km/h 14.3 km/h 30 % 0 mm
10:04 28.5 °C 8.7 °C 1018.2 hPa North 31.5 km/h 16.9 km/h 29 % 0 mm
10:09 28.8 °C 8.9 °C 1018.2 hPa North 31.5 km/h 16.3 km/h 29 % 0 mm
10:14 28.8 °C 8.4 °C 1018.2 hPa NNW 24.1 km/h 19 km/h 28 % 0 mm
10:19 28.8 °C 8.5 °C 1018.2 hPa NNE 25.9 km/h 10.3 km/h 28 % 0 mm
10:24 29.1 °C 8.7 °C 1018.2 hPa North 22.2 km/h 14.8 km/h 28 % 0 mm
10:29 29.2 °C 8.8 °C 1018.2 hPa North 24.1 km/h 16.6 km/h 28 % 0 mm
10:34 29.2 °C 8.8 °C 1018.2 hPa North 24.1 km/h 18.7 km/h 28 % 0 mm
10:39 29.2 °C 8.3 °C 1018.2 hPa NNW 31.5 km/h 19.2 km/h 27 % 0 mm
10:44 29.3 °C 8.4 °C 1018.2 hPa NNW 30.6 km/h 19.3 km/h 27 % 0 mm
10:49 29.6 °C 8.6 °C 1018.2 hPa North 19.3 km/h 11.7 km/h 27 % 0 mm
10:54 29.9 °C 8.9 °C 1018.2 hPa NNE 27.8 km/h 16.3 km/h 27 % 0 mm
10:59 30.4 °C 9.3 °C 1018.2 hPa NNE 20.9 km/h 11.7 km/h 27 % 0 mm
11:04 30.5 °C 8.8 °C 1018.2 hPa North 27.8 km/h 20 km/h 26 % 0 mm
11:09 30.5 °C 8.8 °C 1018.2 hPa NNW 18.5 km/h 12.2 km/h 26 % 0 mm
11:14 30.6 °C 8.3 °C 1018.2 hPa North 31.5 km/h 17.2 km/h 25 % 0 mm
11:19 30.8 °C 8.5 °C 1018.2 hPa NNW 18.5 km/h 14.5 km/h 25 % 0 mm
11:24 30.9 °C 8.6 °C 1018.2 hPa NNW 25.7 km/h 19.2 km/h 25 % 0 mm
11:29 30.9 °C 8.6 °C 1018.2 hPa NNW 22.2 km/h 17.9 km/h 25 % 0 mm
11:34 31.1 °C 8.1 °C 1018.2 hPa NNW 27.8 km/h 16.3 km/h 24 % 0 mm
11:39 31.3 °C 8.3 °C 1018.2 hPa NW 20.4 km/h 17.7 km/h 24 % 0 mm
11:44 31.6 °C 7.9 °C 1018.2 hPa NNW 20.4 km/h 15.6 km/h 23 % 0 mm
11:49 31.8 °C 8.8 °C 1018.2 hPa NW 13 km/h 10.1 km/h 24 % 0 mm
11:54 32 °C 8.9 °C 1018.2 hPa NNW 16.7 km/h 9.8 km/h 24 % 0 mm
11:59 32.2 °C 8.4 °C 1018.2 hPa NNW 25.9 km/h 14.2 km/h 23 % 0 mm
12:04 32 °C 8.3 °C 1017.8 hPa NNW 22.2 km/h 12.4 km/h 23 % 0 mm
12:09 32.2 °C 8.4 °C 1018.2 hPa NNW 22.2 km/h 15.3 km/h 23 % 0 mm
12:14 32.3 °C 8.5 °C 1017.8 hPa NNW 18.5 km/h 8.9 km/h 23 % 0 mm
12:19 32.6 °C 8.8 °C 1017.8 hPa NNW 20.4 km/h 11.7 km/h 23 % 0 mm
12:24 32.7 °C 8.9 °C 1017.8 hPa NNW 18.5 km/h 14 km/h 23 % 0 mm
12:29 32.7 °C 8.9 °C 1017.8 hPa North 19.3 km/h 11.6 km/h 23 % 0 mm
12:34 33.2 °C 8.6 °C 1017.5 hPa North 20.4 km/h 11.3 km/h 22 % 0 mm
12:39 33.7 °C 9.7 °C 1017.5 hPa NNE 16.1 km/h 14.3 km/h 23 % 0 mm
12:44 33.9 °C 8.6 °C 1017.5 hPa North 18.5 km/h 8.4 km/h 21 % 0 mm
12:49 33.9 °C 7.8 °C 1017.5 hPa NNE 29.6 km/h 23.2 km/h 20 % 0 mm
12:54 33.8 °C 8.4 °C 1017.5 hPa North 33.3 km/h 20.1 km/h 21 % 0 mm
12:56 33.8 °C 8.4 °C 1017.5 hPa North 30.6 km/h 18.2 km/h 21 % 0 mm
13:00 33.8 °C 8.4 °C 1017.2 hPa North 9.7 km/h 32.2 km/h 21 % 0 mm
17:10 35.9 °C 7 °C 1014.8 hPa NNE 9.7 km/h 12.9 km/h 17 % 0 mm
17:55 35.8 °C 7.8 °C 1014.4 hPa NNE 9.7 km/h 20.9 km/h 18 % 0 mm
18:00 35.8 °C 6.9 °C 1014.4 hPa North 8 km/h 19.3 km/h 17 % 0 mm
18:05 35.7 °C 7.7 °C 1014.4 hPa NNE 8 km/h 14.5 km/h 18 % 0 mm
18:10 35.7 °C 6.8 °C 1014.4 hPa NE 11.3 km/h 19.3 km/h 17 % 0 mm
18:15 35.7 °C 7.7 °C 1014.4 hPa NNE 4.8 km/h 19.3 km/h 18 % 0 mm
18:20 35.7 °C 7.7 °C 1014.4 hPa NNE 8 km/h 14.5 km/h 18 % 0 mm
18:25 35.6 °C 6.8 °C 1014.4 hPa NNE 4.8 km/h 12.9 km/h 17 % 0 mm
18:30 35.6 °C 6.8 °C 1014.4 hPa NNE 4.8 km/h 12.9 km/h 17 % 0 mm
18:35 35.5 °C 6.7 °C 1014.4 hPa NNE 8 km/h 14.5 km/h 17 % 0 mm
18:40 35.4 °C 6.7 °C 1014.4 hPa NNE 9.7 km/h 11.3 km/h 17 % 0 mm
18:45 35.4 °C 6.7 °C 1014.4 hPa NNE 8 km/h 14.5 km/h 17 % 0 mm
18:50 35.4 °C 7.4 °C 1014.4 hPa NNE 3.2 km/h 16.1 km/h 18 % 0 mm
18:55 35.3 °C 7.4 °C 1014.4 hPa North 9.7 km/h 14.5 km/h 18 % 0 mm
19:00 35.3 °C 7.4 °C 1014.8 hPa North 3.2 km/h 9.7 km/h 18 % 0 mm
19:05 35.2 °C 6.5 °C 1014.8 hPa North 4.8 km/h 9.7 km/h 17 % 0 mm
19:10 35.2 °C 7.3 °C 1014.8 hPa North 8 km/h 14.5 km/h 18 % 0 mm
19:15 35 °C 6.3 °C 1014.8 hPa North 11.3 km/h 16.1 km/h 17 % 0 mm
19:20 34.8 °C 7 °C 1014.8 hPa North 4.8 km/h 19.3 km/h 18 % 0 mm
19:25 34.7 °C 6.9 °C 1014.8 hPa North 4.8 km/h 11.3 km/h 18 % 0 mm
19:30 34.6 °C 6.8 °C 1015.1 hPa North 3.2 km/h 8 km/h 18 % 0 mm
19:35 34.4 °C 6.7 °C 1015.1 hPa North 4.8 km/h 8 km/h 18 % 0 mm
19:40 34.3 °C 6.6 °C 1015.1 hPa North 3.2 km/h 6.4 km/h 18 % 0 mm
19:45 34.2 °C 7.2 °C 1015.1 hPa North 1.6 km/h 6.4 km/h 19 % 0 mm
19:50 34 °C 7.1 °C 1015.1 hPa North 1.6 km/h 4.8 km/h 19 % 0 mm
19:55 33.7 °C 7.7 °C 1015.1 hPa North 1.6 km/h 6.4 km/h 20 % 0 mm
20:00 33.4 °C 7.4 °C 1015.1 hPa Calm   6.4 km/h 20 % 0 mm
20:05 33.1 °C 7.8 °C 1015.1 hPa North 1.6 km/h 3.2 km/h 21 % 0 mm
20:10 32.7 °C 7.5 °C 1015.1 hPa North 1.6 km/h 3.2 km/h 21 % 0 mm
20:15 32.3 °C 7.8 °C 1015.5 hPa North 1.6 km/h 3.2 km/h 22 % 0 mm
20:20 31.8 °C 8.1 °C 1015.5 hPa Calm   3.2 km/h 23 % 0 mm
20:25 31.4 °C 7.8 °C 1015.5 hPa Calm   3.2 km/h 23 % 0 mm
20:30 30.9 °C 8 °C 1015.5 hPa Calm   1.6 km/h 24 % 0 mm
20:35 30.3 °C 8.1 °C 1015.5 hPa Calm     25 % 0 mm
20:44 29.1 °C 7.7 °C 1015.8 hPa Calm     26 % 0 mm
20:49 28.8 °C 7.9 °C 1015.8 hPa North 1.9 km/h   27 % 0 mm
20:54 28.6 °C 8.3 °C 1015.8 hPa Calm     28 % 0 mm
20:59 28.3 °C 8.6 °C 1015.8 hPa Calm     29 % 0 mm
21:04 27.9 °C 8.8 °C 1015.8 hPa Calm     30 % 0 mm
21:09 27.4 °C 9.3 °C 1015.8 hPa North 1.9 km/h   32 % 0 mm
21:14 26.8 °C 8.7 °C 1015.8 hPa Calm     32 % 0 mm
21:19 26.6 °C 8.9 °C 1016.1 hPa Calm     33 % 0 mm
21:24 26.4 °C 9.3 °C 1016.1 hPa Calm     34 % 0 mm
21:29 26.1 °C 8.9 °C 1016.1 hPa Calm     34 % 0 mm
21:34 25.8 °C 9.6 °C 1016.5 hPa Calm     36 % 0 mm
21:39 25.5 °C 9.3 °C 1016.5 hPa Calm     36 % 0 mm
21:44 25.2 °C 9.5 °C 1016.5 hPa Calm     37 % 0 mm
21:49 25.1 °C 9.8 °C 1016.8 hPa North 3.2 km/h 2.1 km/h 38 % 0 mm
21:54 24.7 °C 9.8 °C 1016.5 hPa Calm     39 % 0 mm
21:59 24.3 °C 9.5 °C 1016.8 hPa Calm     39 % 0 mm
22:04 24.4 °C 9.6 °C 1016.8 hPa Calm     39 % 0 mm
22:09 24.3 °C 9.9 °C 1016.5 hPa Calm     40 % 0 mm
22:14 24.2 °C 8.9 °C 1016.8 hPa Calm   0.2 km/h 38 % 0 mm
22:19 24.1 °C 9.3 °C 1016.8 hPa Calm     39 % 0 mm
22:24 24.1 °C 9.2 °C 1016.8 hPa Calm   0.5 km/h 39 % 0 mm
22:29 23.9 °C 9.1 °C 1016.8 hPa North 3.7 km/h 1.9 km/h 39 % 0 mm
22:34 23.9 °C 8.7 °C 1016.8 hPa North 3.7 km/h 0.3 km/h 38 % 0 mm
22:39 23.9 °C 8.7 °C 1016.8 hPa North 1.9 km/h 0.8 km/h 38 % 0 mm
22:44 23.9 °C 8.8 °C 1016.8 hPa North 5.6 km/h 3.1 km/h 38 % 0 mm
22:49 23.8 °C 8.6 °C 1016.8 hPa North 1.9 km/h 1.3 km/h 38 % 0 mm
22:54 23.8 °C 8.7 °C 1016.8 hPa North 4.8 km/h 3.4 km/h 38 % 0 mm
22:59 23.9 °C 8.7 °C 1016.8 hPa North 1.9 km/h 0.5 km/h 38 % 0 mm
23:04 23.8 °C 9 °C 1016.8 hPa Calm     39 % 0 mm
23:09 23.7 °C 8.6 °C 1016.8 hPa Calm     38 % 0 mm
23:14 23.8 °C 8.3 °C 1016.8 hPa North 3.7 km/h 2.1 km/h 37 % 0 mm
23:19 24 °C 8.4 °C 1016.8 hPa North 3.7 km/h 1.8 km/h 37 % 0 mm
23:24 24.1 °C 8.1 °C 1016.8 hPa North 3.7 km/h 0.2 km/h 36 % 0 mm
23:29 24.1 °C 8.5 °C 1016.8 hPa North 3.7 km/h 2.1 km/h 37 % 0 mm
23:34 23.9 °C 8.3 °C 1016.8 hPa North 3.7 km/h 2.4 km/h 37 % 0 mm
23:39 23.8 °C 8.3 °C 1016.8 hPa North 3.7 km/h 1.8 km/h 37 % 0 mm
23:44 23.8 °C 8.7 °C 1016.8 hPa North 3.7 km/h 0.5 km/h 38 % 0 mm
23:49 23.7 °C 8.2 °C 1016.8 hPa Calm     37 % 0 mm
23:54 23.6 °C 8.4 °C 1016.5 hPa North 3.7 km/h 1 km/h 38 % 0 mm
23:59 23.6 °C 8.1 °C 1016.5 hPa North 1.9 km/h   37 % 0 mm
Ararat Weather
Compliments of Weather Underground - 2 mb
Click here to send mail.


ABOUT

Live weather data from Ararat, Victoria, Australia, 3377
Data uploaded from Cumulus every 5 minutes to Weather Underground.
This site then downloads the raw data for formatting and display.
Metric and imperial data can be displayed. Graphs and historical data available.
Includes Sun and Moon times and rain image live from BOM.

Check out Ararat Weather on Facebook, Twitter and Google +

Help support ongoing costs by checking out the ads





Follow @AraratWeather